UAL133 PTPN-PKMJ

Flight info

Callsign UAL133
Flight time N/A
Altitude 33000
Route PNI STEFF MAJ
Aircraft B738/M-SDE2E3FGHIRWXY/LB1

Departure

Time 2026-04-23 16:49
Airport Pohnpei International Airport (PTPN)

Arrival

Time N/A
Airport Marshall Islands International Airport (PKMJ)
Time Latitude Longitude Altitude Speed Heading
2026-04-23 16:35 6.98196 158.20395 16 ft 0 kts 178°
2026-04-23 16:42 6.98215 158.20395 16 ft 4 kts 185°
2026-04-23 16:42 6.98242 158.20397 19 ft 4 kts 167°
2026-04-23 16:43 6.98260 158.20390 19 ft 4 kts 116°
2026-04-23 16:43 6.98265 158.20371 19 ft 2 kts 117°
2026-04-23 16:43 6.98271 158.20351 20 ft 4 kts 73°
2026-04-23 16:43 6.98264 158.20329 18 ft 1 kts 89°
2026-04-23 16:46 6.98264 158.20330 18 ft 1 kts 89°
2026-04-23 16:46 6.98273 158.20342 20 ft 4 kts 41°
2026-04-23 16:47 6.98316 158.20354 17 ft 9 kts
2026-04-23 16:47 6.98395 158.20358 17 ft 13 kts
2026-04-23 16:47 6.98495 158.20333 16 ft 17 kts 310°
2026-04-23 16:47 6.98510 158.20202 16 ft 21 kts 261°
2026-04-23 16:48 6.98482 158.20087 17 ft 8 kts 317°
2026-04-23 16:48 6.98514 158.20126 17 ft 12 kts 92°
2026-04-23 16:48 6.98513 158.20439 16 ft 84 kts 90°
2026-04-23 16:48 6.98510 158.21276 18 ft 152 kts 91°
2026-04-23 16:49 6.98501 158.22046 327 ft 164 kts 90°
2026-04-23 16:49 6.98515 158.23555 1426 ft 170 kts 88°
2026-04-23 16:49 6.98533 158.24813 1893 ft 189 kts 88°
2026-04-23 16:49 6.98553 158.26240 2089 ft 217 kts 89°
2026-04-23 16:50 6.98573 158.27799 2531 ft 229 kts 89°
2026-04-23 16:50 6.98592 158.29489 2725 ft 253 kts 89°
2026-04-23 16:50 6.98608 158.31276 3442 ft 258 kts 88°
2026-04-23 16:50 6.98623 158.33076 4377 ft 256 kts 89°
2026-04-23 16:51 6.98636 158.34879 5232 ft 258 kts 89°
2026-04-23 16:51 6.98654 158.36669 6160 ft 257 kts 89°